Location: Unspecified
(0.0000°N, 0.0000°E)
Time: 10:49:45
(UTC+01:00)

Cosmos 2369 Rocket - Visible Passes

Search period start: 20 January 2017 00:00
Search period end: 30 January 2017 00:00
Orbit: 828 x 854 km, 71.0° (Epoch: 18 January)

Date Brightness Start Highest point End Pass type
(mag) Time Alt. Az. Time Alt. Az. Time Alt. Az.
27 Jan 4.3 20:55:33 11° SE 20:55:33 11° SE 20:55:51 10° SE visible
28 Jan 2.5 20:30:04 10° N 20:35:15 40° ENE 20:40:27 10° SE visible
28 Jan 4.9 22:16:31 10° W 22:19:00 13° WSW 22:21:28 10° SW visible
29 Jan 2.6 20:14:50 10° N 20:19:56 37° ENE 20:25:02 10° SE visible
29 Jan 4.9 22:00:48 10° WNW 22:03:40 14° WSW 22:06:33 10° SW visible
